Tracking 17938 objects as of 21-February-2017
HD Live streaming from Space Station
objects crossing your sky now

KOMPSAT 3

Track KOMPSAT 3 now!
10-day predictions
KOMPSAT 3 is classified as:


NORAD ID: 38338
Int'l Code: 2012-025B
Perigee: 688.4 km
Apogee: 702.3 km
Inclination: 98.1 °
Period: 98.5 minutes
Semi major axis: 7066 km
RCS: 5.2993 m2 (large)
Launch date: May 17, 2012
Source: South Korea (SKOR)
Launch site: TANEGASHIMA SPACE CENTER (TNSTA)
Uplink (MHz):
Downlink (MHz):
Beacon (MHz):
Mode:
Call sign:
Status:

Your satellite tracking list
Your tracking list is empty





NASA's NSSDC Master Catalog

Two Line Element Set (TLE):
1 38338U 12025B   17052.09452760  .00000076  00000-0  24627-4 0  9991
2 38338  98.1286 352.1346 0009825 342.1749  17.9108 14.61543638254221
Source of the keplerian elements: AFSPC